Date,Time,Wetness (Wet Dry or Ice),Wind Speed (m/s),Temperature (C),Humidity (%),Pressure (mb),Radiation (W/m^2)
2020-04-29,03:45:00,DRY,6.80,4.55,42.5,776.00,1.2
2020-04-29,03:50:00,DRY,5.53,4.43,43.7,776.00,1.0
2020-04-29,03:55:00,DRY,6.70,4.45,44.0,776.00,1.1
2020-04-29,04:00:00,DRY,5.70,4.63,43.7,776.00,1.6
2020-04-29,04:05:00,DRY,5.50,4.70,43.0,776.00,1.1
2020-04-29,04:10:00,DRY,6.50,4.77,43.0,776.00,1.1
2020-04-29,04:15:00,DRY,4.15,4.70,43.0,776.00,0.9
2020-04-29,04:20:00,DRY,4.20,4.53,43.7,776.00,1.0
2020-04-29,04:25:00,DRY,4.65,4.40,44.0,776.00,1.0
2020-04-29,04:30:00,DRY,4.83,4.23,44.3,776.00,1.0
2020-04-29,04:35:00,DRY,6.75,4.30,44.0,776.00,1.1
2020-04-29,04:40:00,DRY,6.00,4.13,46.7,776.00,0.9
2020-04-29,04:45:00,DRY,4.95,4.10,47.0,776.00,1.4
2020-04-29,04:50:00,DRY,6.40,4.20,47.3,776.00,1.7
2020-04-29,04:55:00,DRY,4.55,4.20,46.5,776.00,0.9
2020-04-29,05:00:00,DRY,4.87,4.23,46.3,776.00,1.1
2020-04-29,05:05:00,DRY,5.10,4.20,46.5,776.00,1.0
2020-04-29,05:10:00,DRY,5.37,4.23,46.0,776.00,1.1
2020-04-29,05:15:00,DRY,4.55,4.25,46.0,776.00,0.8
2020-04-29,05:20:00,DRY,4.43,4.27,46.0,776.00,1.3
2020-04-29,05:25:00,DRY,4.70,4.20,46.0,776.00,1.1
2020-04-29,05:30:00,DRY,4.33,4.20,46.0,776.00,1.5
2020-04-29,05:35:00,DRY,4.60,4.20,46.0,776.00,1.4
2020-04-29,05:40:00,DRY,3.53,4.17,46.0,776.00,1.2
2020-04-29,05:45:00,DRY,3.75,4.10,45.5,776.00,1.1
2020-04-29,05:50:00,DRY,4.67,4.17,46.0,776.00,1.0
2020-04-29,05:55:00,DRY,4.10,4.15,46.0,776.00,1.3
2020-04-29,06:00:00,DRY,4.47,4.13,45.3,776.00,1.0
2020-04-29,06:05:00,DRY,4.30,4.20,45.0,776.00,1.2
2020-04-29,06:10:00,DRY,4.13,4.17,45.0,776.00,1.1
2020-04-29,06:15:00,DRY,3.90,4.15,45.0,776.00,1.2
2020-04-29,06:20:00,DRY,3.97,4.10,46.0,776.00,2.2
2020-04-29,06:25:00,DRY,4.80,4.20,45.0,776.00,3.6
2020-04-29,06:30:00,DRY,5.43,4.27,45.3,776.00,7.2
2020-04-29,06:35:00,DRY,4.80,4.85,45.5,776.00,13.2
2020-04-29,06:40:00,DRY,4.07,5.13,44.0,776.00,18.7
2020-04-29,06:45:00,DRY,4.40,5.30,43.5,776.00,37.7
2020-04-29,06:50:00,DRY,3.97,5.43,43.3,776.00,58.6
2020-04-29,06:55:00,DRY,3.35,5.50,43.5,776.00,80.8
2020-04-29,07:00:00,DRY,4.20,5.53,43.7,776.00,97.4
2020-04-29,07:05:00,DRY,2.55,5.70,43.0,776.00,116.5
2020-04-29,07:10:00,DRY,4.83,5.83,43.0,776.00,141.5
2020-04-29,07:15:00,DRY,4.70,5.90,43.0,776.00,162.8
2020-04-29,07:20:00,DRY,4.43,5.97,42.7,776.00,184.5
2020-04-29,07:25:00,DRY,5.35,6.15,42.0,776.00,206.6
2020-04-29,07:30:00,DRY,4.37,6.23,41.3,776.00,229.6
2020-04-29,07:35:00,DRY,3.90,6.30,42.0,776.00,253.0
2020-04-29,07:40:00,DRY,4.10,6.37,42.0,776.00,277.7
2020-04-29,07:45:00,DRY,3.15,6.40,41.5,776.00,302.9
2020-04-29,07:50:00,DRY,4.23,6.53,41.7,776.00,327.8
2020-04-29,07:55:00,DRY,3.40,6.75,41.5,776.00,351.2
2020-04-29,08:00:00,DRY,4.47,6.83,40.7,776.00,372.9
2020-04-29,08:05:00,DRY,2.65,6.85,41.0,776.00,393.3
2020-04-29,08:10:00,DRY,4.07,7.03,41.0,776.00,416.1
2020-04-29,08:15:00,DRY,3.90,7.10,41.0,776.00,439.4
2020-04-29,08:20:00,DRY,3.60,7.00,40.7,776.33,460.5
2020-04-29,08:25:00,DRY,3.60,7.05,41.0,776.00,482.5
2020-04-29,08:30:00,DRY,4.40,7.20,40.3,776.00,504.1
2020-04-29,08:35:00,DRY,4.15,7.20,41.0,776.00,527.0
2020-04-29,08:40:00,DRY,3.53,7.30,42.3,776.33,550.5
2020-04-29,08:45:00,DRY,4.45,7.30,41.5,776.00,573.1
2020-04-29,08:50:00,DRY,4.03,7.30,42.7,776.00,596.0
2020-04-29,08:55:00,DRY,5.15,7.40,42.5,776.00,622.0
2020-04-29,09:00:00,DRY,4.53,7.37,41.7,776.00,648.1
2020-04-29,09:05:00,DRY,2.75,7.70,41.5,776.00,676.0
2020-04-29,09:10:00,DRY,4.27,7.70,42.0,776.33,661.6
2020-04-29,09:15:00,DRY,5.25,7.70,42.0,776.50,627.3
2020-04-29,09:20:00,DRY,4.20,7.63,43.0,776.33,609.3
2020-04-29,09:25:00,DRY,5.05,7.60,44.5,776.50,637.5
2020-04-29,09:30:00,DRY,5.13,7.67,43.7,777.00,734.9
2020-04-29,09:35:00,DRY,4.25,7.70,43.5,777.00,770.2
2020-04-29,09:40:00,DRY,4.50,7.87,44.7,776.67,730.3
2020-04-29,09:45:00,DRY,4.70,7.90,45.5,776.50,676.5
2020-04-29,09:50:00,DRY,3.10,7.75,48.0,777.00,690.1
2020-04-29,09:55:00,DRY,5.65,7.80,47.5,777.00,712.2
2020-04-29,10:00:00,DRY,4.47,7.90,49.0,777.00,789.9
2020-04-29,10:05:00,DRY,4.60,7.85,53.0,777.00,841.5
2020-04-29,10:10:00,DRY,3.90,8.00,53.0,777.00,882.5
2020-04-29,10:15:00,DRY,3.85,7.85,52.5,777.00,901.2
2020-04-29,10:20:00,DRY,3.63,7.93,56.0,777.00,921.1
2020-04-29,10:25:00,DRY,2.65,7.70,57.0,777.00,932.4
2020-04-29,10:30:00,DRY,5.33,7.97,54.3,777.00,945.5
2020-04-29,10:35:00,DRY,5.45,7.65,58.5,777.00,958.7
2020-04-29,10:40:00,DRY,4.60,7.90,55.3,777.00,971.1
2020-04-29,10:45:00,DRY,3.10,8.20,56.5,777.00,986.2
2020-04-29,10:50:00,DRY,4.83,8.37,55.3,777.00,997.3
2020-04-29,10:55:00,DRY,4.25,8.40,56.0,777.00,1010.0
2020-04-29,11:00:00,DRY,4.00,8.37,54.7,777.00,1023.3
2020-04-29,11:05:00,DRY,3.95,8.75,55.5,777.00,1036.2
2020-04-29,11:10:00,DRY,3.53,8.77,59.7,777.00,1050.3
2020-04-29,11:15:00,DRY,2.45,8.95,57.0,777.00,1065.0
2020-04-29,11:20:00,DRY,2.97,9.03,60.3,777.00,1117.8
2020-04-29,11:25:00,DRY,2.50,9.05,63.0,777.00,1192.6
2020-04-29,11:30:00,DRY,4.47,9.33,57.3,777.00,1227.6
2020-04-29,11:35:00,DRY,4.75,9.20,62.0,777.00,1251.5
2020-04-29,11:40:00,DRY,4.77,9.30,62.7,777.00,1286.9
2020-04-29,11:45:00,DRY,2.85,9.00,55.0,777.00,1249.6
2020-04-29,11:50:00,DRY,4.27,8.73,57.3,777.33,1201.2
2020-04-29,11:55:00,DRY,4.90,10.00,52.5,777.00,1199.1
2020-04-29,12:00:00,DRY,4.17,9.13,53.0,777.33,1120.2
2020-04-29,12:05:00,DRY,4.00,9.60,54.5,777.00,887.6
2020-04-29,12:10:00,DRY,4.63,9.73,54.3,777.00,1217.0
2020-04-29,12:15:00,DRY,4.25,9.50,51.5,777.50,1186.3
2020-04-29,12:20:00,DRY,5.07,9.00,55.7,777.00,1195.7
2020-04-29,12:25:00,DRY,5.00,9.45,54.0,777.00,1162.2
2020-04-29,12:30:00,DRY,4.63,9.03,53.3,777.00,1182.6
2020-04-29,12:35:00,DRY,4.15,9.60,54.5,777.50,1197.0
2020-04-29,12:40:00,DRY,5.03,8.90,54.0,777.00,1198.0
2020-04-29,12:45:00,DRY,4.25,9.85,51.0,777.00,1196.7
2020-04-29,12:50:00,DRY,5.40,9.53,53.7,777.00,1205.3
2020-04-29,12:55:00,DRY,5.75,9.30,59.0,777.00,1183.7
2020-04-29,13:00:00,DRY,4.30,9.57,58.0,777.33,1218.9
2020-04-29,13:05:00,DRY,4.55,9.25,56.5,777.00,1298.6
2020-04-29,13:10:00,DRY,4.80,9.30,54.0,777.00,1291.7
2020-04-29,13:15:00,DRY,3.55,9.30,52.5,777.00,1302.4
2020-04-29,13:20:00,DRY,5.83,9.07,55.3,777.00,1292.1
2020-04-29,13:25:00,DRY,6.15,9.60,53.0,777.00,939.0
2020-04-29,13:30:00,DRY,4.50,8.50,52.0,777.00,831.1
2020-04-29,13:35:00,DRY,4.00,9.50,53.0,777.00,1225.5
2020-04-29,13:40:00,DRY,6.03,9.17,53.3,777.00,1227.3
2020-04-29,13:45:00,DRY,5.90,9.05,52.5,777.00,1231.5
2020-04-29,13:50:00,DRY,5.47,9.00,58.7,777.00,1227.3
2020-04-29,13:55:00,DRY,4.75,9.10,56.0,777.00,1147.6
2020-04-29,14:00:00,DRY,5.27,9.03,59.7,777.00,1280.0
2020-04-29,14:05:00,DRY,4.95,9.15,51.5,777.00,1357.5
2020-04-29,14:10:00,DRY,4.40,9.07,55.7,777.00,1277.0
2020-04-29,14:15:00,DRY,4.85,9.30,59.0,777.00,874.8
2020-04-29,14:20:00,DRY,4.87,8.33,60.7,777.00,520.8
2020-04-29,14:25:00,DRY,4.50,8.05,59.0,777.00,1165.7
2020-04-29,14:30:00,DRY,5.13,8.93,58.0,777.00,1104.3
2020-04-29,14:35:00,DRY,4.25,8.75,56.0,777.00,1057.5
2020-04-29,14:40:00,DRY,4.80,8.70,58.7,777.00,1109.5
2020-04-29,14:45:00,DRY,3.65,8.45,59.5,777.00,1115.2
2020-04-29,14:50:00,DRY,3.20,8.73,62.3,777.00,1112.8
2020-04-29,14:55:00,DRY,5.05,8.80,66.0,777.00,1127.8
2020-04-29,15:00:00,DRY,4.17,9.40,66.7,777.00,1169.8
2020-04-29,15:05:00,DRY,5.15,8.25,79.0,777.00,1362.7
2020-04-29,15:10:00,DRY,3.80,8.00,74.5,777.00,767.9
2020-04-29,15:15:00,DRY,3.45,8.30,71.5,777.00,1009.7
2020-04-29,15:20:00,DRY,3.70,8.40,73.7,777.00,1058.0
2020-04-29,15:25:00,DRY,2.60,8.60,67.5,777.00,1037.3
2020-04-29,15:30:00,DRY,4.87,8.60,66.0,777.00,1002.2
2020-04-29,15:35:00,DRY,4.70,8.40,64.0,777.00,996.5
2020-04-29,15:40:00,DRY,3.87,8.23,64.0,777.00,973.0
2020-04-29,15:45:00,DRY,3.65,7.90,62.0,777.00,956.9
2020-04-29,15:50:00,DRY,3.70,8.03,60.3,777.00,945.5
2020-04-29,15:55:00,DRY,5.25,7.95,59.5,777.00,928.5
2020-04-29,16:00:00,DRY,4.07,8.33,58.3,777.00,908.0
2020-04-29,16:05:00,DRY,4.55,7.95,58.0,777.00,885.2
2020-04-29,16:10:00,DRY,2.93,7.97,53.3,777.00,868.8
2020-04-29,16:15:00,DRY,3.80,8.45,53.0,777.00,851.2
2020-04-29,16:20:00,DRY,3.73,8.53,47.3,777.00,834.8
2020-04-29,16:25:00,DRY,4.60,8.55,47.5,777.00,818.0
2020-04-29,16:30:00,DRY,5.37,8.90,53.0,777.00,799.1
2020-04-29,16:35:00,DRY,5.25,8.75,50.0,777.00,782.9
2020-04-29,16:40:00,DRY,5.43,8.87,54.0,776.67,762.2
2020-04-29,16:45:00,DRY,6.45,8.65,64.5,776.00,741.2
2020-04-29,16:50:00,DRY,5.43,8.30,64.0,776.67,725.7
2020-04-29,16:55:00,DRY,4.70,7.80,67.0,777.00,705.2
2020-04-29,17:00:00,DRY,4.73,7.77,59.7,777.00,695.0
2020-04-29,17:05:00,DRY,4.35,7.75,55.0,776.50,623.2
2020-04-29,17:10:00,DRY,5.23,7.47,54.3,777.00,490.1
2020-04-29,17:15:00,DRY,5.00,6.75,58.0,777.00,388.6
2020-04-29,17:20:00,DRY,4.40,7.13,54.0,777.00,596.0
2020-04-29,17:25:00,DRY,4.85,7.20,55.0,777.00,467.9
2020-04-29,17:30:00,DRY,4.27,6.93,56.3,777.00,520.2
2020-04-29,17:35:00,DRY,4.90,7.65,44.0,777.00,532.1
2020-04-29,17:40:00,DRY,4.73,7.50,48.3,776.67,511.1
2020-04-29,17:45:00,DRY,4.50,7.35,53.0,776.50,487.6
2020-04-29,17:50:00,DRY,4.73,7.60,52.3,777.00,465.9
2020-04-29,17:55:00,DRY,6.05,7.60,55.5,777.00,443.8
2020-04-29,18:00:00,DRY,4.03,6.97,58.0,777.00,421.1
2020-04-29,18:05:00,DRY,4.05,6.90,63.0,776.50,398.2
2020-04-29,18:10:00,DRY,4.57,6.63,63.7,776.67,375.4
2020-04-29,18:15:00,DRY,3.80,6.60,66.0,777.00,352.5
2020-04-29,18:20:00,DRY,3.77,6.37,61.7,777.00,330.3
2020-04-29,18:25:00,DRY,4.40,6.75,63.0,776.50,308.0
2020-04-29,18:30:00,DRY,4.00,6.37,63.7,777.00,286.8
2020-04-29,18:35:00,DRY,4.30,6.40,63.0,776.00,264.4
2020-04-29,18:40:00,DRY,5.07,6.27,62.7,776.33,242.5
2020-04-29,18:45:00,DRY,5.10,6.00,63.0,776.00,220.9
2020-04-29,18:50:00,DRY,5.00,5.83,62.3,776.67,128.2
2020-04-29,18:55:00,DRY,3.85,5.80,62.5,777.00,43.5
2020-04-29,19:00:00,DRY,4.00,5.67,62.0,777.00,38.1
2020-04-29,19:05:00,DRY,3.45,5.40,62.5,777.00,34.0
2020-04-29,19:10:00,DRY,3.83,5.57,60.0,777.00,30.8
2020-04-29,19:15:00,DRY,4.10,5.30,60.5,777.00,28.7
2020-04-29,19:20:00,DRY,5.30,5.33,60.0,777.00,26.1
2020-04-29,19:25:00,DRY,5.70,5.05,60.0,777.00,25.4
2020-04-29,19:30:00,DRY,4.47,5.00,60.3,777.00,22.6
2020-04-29,19:35:00,DRY,5.30,4.90,61.0,777.00,18.9
2020-04-29,19:40:00,DRY,5.30,4.80,60.7,777.00,15.2
2020-04-29,19:45:00,DRY,6.80,4.70,60.5,777.00,10.2
2020-04-29,19:50:00,DRY,5.73,4.47,62.0,777.00,6.8
2020-04-29,19:55:00,DRY,5.85,4.30,63.0,777.00,4.0
2020-04-29,20:00:00,DRY,6.67,4.23,63.3,777.00,2.5
2020-04-29,20:05:00,DRY,6.80,4.15,64.0,777.00,1.5
2020-04-29,20:10:00,DRY,6.07,4.10,64.0,777.00,1.3
2020-04-29,20:15:00,DRY,5.30,4.05,64.0,777.00,1.0
2020-04-29,20:20:00,DRY,5.23,4.00,64.3,777.00,1.6
2020-04-29,20:25:00,DRY,6.25,4.00,64.0,777.00,1.1
2020-04-29,20:30:00,DRY,5.13,3.97,64.7,777.00,1.2
2020-04-29,20:35:00,DRY,6.50,3.90,64.5,777.00,1.1
2020-04-29,20:40:00,DRY,6.23,3.90,64.0,777.00,1.3
2020-04-29,20:45:00,DRY,5.90,3.80,65.0,777.00,1.0
2020-04-29,20:50:00,DRY,5.47,3.80,64.7,777.00,1.4
2020-04-29,20:55:00,DRY,5.00,3.80,64.0,777.00,1.6
2020-04-29,21:00:00,DRY,5.00,3.80,63.7,777.00,1.3
2020-04-29,21:05:00,DRY,5.10,3.85,61.0,777.00,1.5
2020-04-29,21:10:00,DRY,4.10,3.87,60.7,777.00,1.0
2020-04-29,21:15:00,DRY,4.55,3.85,60.5,778.00,0.9
2020-04-29,21:20:00,DRY,5.07,3.87,59.0,778.00,1.1
2020-04-29,21:25:00,DRY,5.40,3.85,61.0,778.00,1.2
2020-04-29,21:30:00,DRY,4.90,3.80,60.0,778.00,1.3
2020-04-29,21:35:00,DRY,4.60,3.70,61.0,778.00,1.4
2020-04-29,21:40:00,DRY,3.90,3.73,60.0,778.00,1.2
2020-04-29,21:45:00,DRY,3.90,3.70,60.0,778.00,1.3
2020-04-29,21:50:00,DRY,3.73,3.63,61.3,778.00,1.2
2020-04-29,21:55:00,DRY,4.85,3.60,62.0,778.00,0.9
2020-04-29,22:00:00,DRY,3.77,3.60,62.3,778.00,1.3
2020-04-29,22:05:00,DRY,3.50,3.65,61.0,778.00,1.6
2020-04-29,22:10:00,DRY,3.43,3.77,56.7,778.00,1.2
2020-04-29,22:15:00,DRY,4.25,3.95,53.0,778.00,1.1
2020-04-29,22:20:00,DRY,3.63,4.07,47.7,778.00,1.5
2020-04-29,22:25:00,DRY,3.90,4.10,47.0,778.50,1.2
2020-04-29,22:30:00,DRY,3.47,4.17,44.7,778.67,1.6
2020-04-29,22:35:00,DRY,4.35,4.25,42.5,779.00,1.5
2020-04-29,22:40:00,DRY,4.43,4.50,35.7,779.00,1.6
2020-04-29,22:45:00,DRY,3.80,4.50,37.0,779.00,1.2
2020-04-29,22:50:00,DRY,4.30,4.37,40.7,778.67,0.9
2020-04-29,22:55:00,DRY,4.00,4.00,52.0,778.50,1.4
2020-04-29,23:00:00,DRY,3.13,4.47,46.0,779.00,1.3
2020-04-29,23:05:00,DRY,4.30,4.00,55.0,779.00,1.0
2020-04-29,23:10:00,DRY,4.60,4.07,49.0,778.67,1.5
2020-04-29,23:15:00,DRY,5.20,4.70,39.0,778.50,2.4
2020-04-29,23:20:00,DRY,4.53,4.27,46.3,778.67,1.5
2020-04-29,23:25:00,DRY,3.85,3.75,56.0,778.50,1.2
2020-04-29,23:30:00,DRY,4.50,3.60,58.0,778.33,1.0
2020-04-29,23:35:00,DRY,4.25,3.45,61.5,778.50,1.2
2020-04-29,23:40:00,DRY,4.43,3.77,50.0,778.00,1.4
2020-04-29,23:45:00,DRY,4.20,3.95,51.5,778.00,1.9
2020-04-29,23:50:00,DRY,5.77,4.43,41.7,778.00,1.6
2020-04-29,23:55:00,DRY,5.75,4.80,38.0,778.00,1.4
2020-04-30,00:00:00,DRY,6.03,5.00,37.0,778.00,1.8
2020-04-30,00:05:00,DRY,4.75,5.05,38.0,778.50,1.4
2020-04-30,00:10:00,DRY,5.30,5.07,37.0,778.00,1.3
2020-04-30,00:15:00,DRY,5.20,5.30,35.0,778.00,1.3
2020-04-30,00:20:00,DRY,4.63,5.10,36.0,778.00,1.1
2020-04-30,00:25:00,DRY,5.85,4.95,36.5,778.00,1.4
2020-04-30,00:30:00,DRY,5.83,5.03,35.0,778.00,1.2
2020-04-30,00:35:00,DRY,4.35,5.05,35.5,778.00,1.5
2020-04-30,00:40:00,DRY,4.57,5.03,33.3,778.00,1.1
2020-04-30,00:45:00,DRY,4.55,5.00,33.0,778.00,2.5
2020-04-30,00:50:00,DRY,5.20,4.93,33.0,778.00,1.5
2020-04-30,00:55:00,DRY,5.60,5.10,32.0,778.00,0.8
2020-04-30,01:00:00,DRY,4.83,5.13,32.0,778.00,0.8
2020-04-30,01:05:00,DRY,5.50,5.20,31.0,778.00,1.1
2020-04-30,01:10:00,DRY,4.40,5.17,29.7,778.00,1.4
2020-04-30,01:15:00,DRY,4.90,5.35,26.5,778.00,1.3
2020-04-30,01:20:00,DRY,4.60,5.60,25.7,778.00,1.1
2020-04-30,01:25:00,DRY,4.60,5.70,25.5,778.00,1.3
2020-04-30,01:30:00,DRY,4.77,5.70,26.0,778.00,1.4
2020-04-30,01:35:00,DRY,4.50,5.75,26.0,778.00,1.1
2020-04-30,01:40:00,DRY,4.53,5.63,26.0,778.00,1.3
2020-04-30,01:45:00,DRY,5.00,5.75,26.0,778.00,1.2
2020-04-30,01:50:00,DRY,5.77,5.77,24.7,778.00,1.3
2020-04-30,01:55:00,DRY,5.30,5.75,25.0,778.00,1.1
2020-04-30,02:00:00,DRY,5.00,5.70,24.7,778.00,1.4
2020-04-30,02:05:00,DRY,5.70,5.70,24.5,778.00,1.5
2020-04-30,02:10:00,DRY,5.20,5.77,24.0,778.00,1.8
2020-04-30,02:15:00,DRY,3.95,6.00,23.0,778.00,1.3
2020-04-30,02:20:00,DRY,5.20,6.00,22.7,778.00,1.8
2020-04-30,02:25:00,DRY,4.00,6.05,23.0,778.00,1.2
2020-04-30,02:30:00,DRY,4.17,6.33,21.7,778.00,1.3
2020-04-30,02:35:00,DRY,5.90,6.65,21.0,778.00,1.7
2020-04-30,02:40:00,DRY,5.33,6.40,21.0,778.00,1.4
2020-04-30,02:45:00,DRY,4.60,5.90,23.0,778.00,1.1
2020-04-30,02:50:00,DRY,3.67,5.67,23.7,778.00,1.0
2020-04-30,02:55:00,DRY,4.15,5.65,23.0,778.00,1.5
2020-04-30,03:00:00,DRY,5.00,5.60,23.0,777.00,1.4
2020-04-30,03:05:00,DRY,4.40,5.70,22.0,777.00,1.2
2020-04-30,03:10:00,DRY,5.17,5.97,21.0,777.00,1.2
2020-04-30,03:15:00,DRY,5.45,6.30,20.0,777.00,0.8
2020-04-30,03:20:00,DRY,4.80,6.40,19.0,777.00,1.2
2020-04-30,03:25:00,DRY,4.60,6.20,18.5,777.00,1.2
2020-04-30,03:30:00,DRY,4.70,6.10,19.7,777.00,1.1
2020-04-30,03:35:00,DRY,4.20,6.00,19.0,777.00,1.8
2020-04-30,03:40:00,DRY,4.83,6.17,18.0,777.00,1.3
2020-04-30,03:45:00,DRY,4.35,6.45,15.5,777.00,1.4
2020-04-30,03:50:00,DRY,5.07,6.63,14.3,777.00,1.6
2020-04-30,03:55:00,DRY,5.05,6.70,14.0,777.00,1.4
2020-04-30,04:00:00,DRY,5.60,6.80,14.0,777.00,1.9
2020-04-30,04:05:00,DRY,5.40,6.80,14.0,777.00,1.3
2020-04-30,04:10:00,DRY,4.47,6.60,14.0,777.00,1.4
2020-04-30,04:15:00,DRY,4.70,6.75,13.5,777.00,1.3
2020-04-30,04:20:00,DRY,3.43,6.70,14.3,777.00,1.6
2020-04-30,04:25:00,DRY,2.90,6.45,15.5,777.00,1.9
2020-04-30,04:30:00,DRY,3.37,6.40,15.7,777.00,1.1
2020-04-30,04:35:00,DRY,3.75,6.20,15.0,777.00,0.9
2020-04-30,04:40:00,DRY,4.03,6.43,14.7,777.00,0.6
2020-04-30,04:45:00,DRY,3.90,6.45,13.5,777.00,1.6
2020-04-30,04:50:00,DRY,4.40,6.77,13.0,777.00,1.3
2020-04-30,04:55:00,DRY,2.70,6.80,13.5,777.00,1.1
2020-04-30,05:00:00,DRY,2.47,6.67,14.7,777.00,1.3
2020-04-30,05:05:00,DRY,4.30,6.75,14.5,777.00,1.2
2020-04-30,05:10:00,DRY,3.20,6.80,15.0,777.00,1.3
2020-04-30,05:15:00,DRY,3.60,6.80,16.0,777.00,0.5
2020-04-30,05:20:00,DRY,3.30,6.87,17.3,777.00,1.1
2020-04-30,05:25:00,DRY,3.90,6.75,16.5,777.00,0.9
2020-04-30,05:30:00,DRY,5.03,6.87,16.0,777.00,1.2
2020-04-30,05:35:00,DRY,4.35,6.85,14.5,777.00,1.1
2020-04-30,05:40:00,DRY,4.37,6.70,13.7,777.00,1.3
2020-04-30,05:45:00,DRY,4.85,6.50,15.0,777.00,2.0
2020-04-30,05:50:00,DRY,4.47,6.47,15.0,777.00,1.5
2020-04-30,05:55:00,DRY,4.70,6.10,17.5,777.50,1.2
2020-04-30,06:00:00,DRY,5.63,5.90,17.7,777.00,1.3
2020-04-30,06:05:00,DRY,5.45,5.90,20.5,777.00,1.2
2020-04-30,06:10:00,DRY,5.10,5.33,25.3,777.00,1.2
2020-04-30,06:15:00,DRY,3.65,5.35,23.5,777.50,1.8
2020-04-30,06:20:00,DRY,3.77,6.07,19.7,778.00,2.7
2020-04-30,06:25:00,DRY,5.50,6.40,17.5,777.50,4.2
2020-04-30,06:30:00,DRY,4.63,6.50,18.3,777.67,8.2
2020-04-30,06:35:00,DRY,4.35,6.80,18.0,778.00,16.4
2020-04-30,06:40:00,DRY,2.27,6.70,19.0,778.00,29.2
2020-04-30,06:45:00,DRY,3.80,6.70,18.5,778.00,46.6
2020-04-30,06:50:00,DRY,3.80,7.23,17.3,778.00,68.4
2020-04-30,06:55:00,DRY,4.20,7.60,16.5,778.00,93.4
2020-04-30,07:00:00,DRY,4.30,7.70,15.3,778.00,116.5
2020-04-30,07:05:00,DRY,3.75,8.10,12.5,778.00,137.2
2020-04-30,07:10:00,DRY,3.87,8.20,11.3,778.00,158.1
2020-04-30,07:15:00,DRY,4.80,8.45,11.5,778.00,179.7
2020-04-30,07:20:00,DRY,3.30,8.50,11.3,778.00,202.2
2020-04-30,07:25:00,DRY,4.20,8.50,12.0,778.00,225.7
2020-04-30,07:30:00,DRY,5.27,8.60,10.7,778.00,247.7
2020-04-30,07:35:00,DRY,4.85,8.70,10.5,778.00,271.6
2020-04-30,07:40:00,DRY,4.33,8.63,11.3,778.00,295.1
2020-04-30,07:45:00,DRY,5.00,8.90,11.0,778.00,317.8
2020-04-30,07:50:00,DRY,4.23,9.00,10.3,778.00,341.0
2020-04-30,07:55:00,DRY,4.65,9.20,11.0,778.00,364.0
2020-04-30,08:00:00,DRY,4.77,9.67,9.7,778.00,387.5
2020-04-30,08:05:00,DRY,4.10,9.70,9.5,778.00,410.4
2020-04-30,08:10:00,DRY,5.00,9.63,10.3,778.00,433.9
2020-04-30,08:15:00,DRY,5.05,9.70,10.0,778.00,457.4
2020-04-30,08:20:00,DRY,5.30,9.97,10.3,778.00,479.4
2020-04-30,08:25:00,DRY,4.30,9.95,9.0,778.00,502.2
2020-04-30,08:30:00,DRY,4.20,9.83,12.3,778.00,525.6
2020-04-30,08:35:00,DRY,4.60,9.90,10.5,778.00,547.7
2020-04-30,08:40:00,DRY,4.63,10.17,11.7,778.00,570.0
2020-04-30,08:45:00,DRY,4.45,10.45,11.5,778.00,591.9
2020-04-30,08:50:00,DRY,4.37,10.53,9.7,778.00,613.9
2020-04-30,08:55:00,DRY,4.05,10.55,10.5,778.00,634.8
2020-04-30,09:00:00,DRY,4.37,10.50,11.7,778.00,656.1
2020-04-30,09:05:00,DRY,5.00,10.45,10.5,778.00,676.2
2020-04-30,09:10:00,DRY,3.50,10.73,10.3,778.33,697.6
2020-04-30,09:15:00,DRY,3.60,11.05,10.5,778.50,717.0
2020-04-30,09:20:00,DRY,2.73,11.07,11.0,779.00,735.8
2020-04-30,09:25:00,DRY,3.55,11.10,10.5,779.00,755.8
2020-04-30,09:30:00,DRY,3.27,11.20,10.7,779.00,774.2
2020-04-30,09:35:00,DRY,4.35,11.50,10.5,779.00,793.3
2020-04-30,09:40:00,DRY,2.33,11.57,10.3,779.00,811.1
2020-04-30,09:45:00,DRY,2.20,11.80,11.5,779.00,828.9
2020-04-30,09:50:00,DRY,3.97,11.80,13.0,779.00,846.9
2020-04-30,09:55:00,DRY,2.35,11.35,11.5,779.00,865.0
2020-04-30,10:00:00,DRY,2.23,11.43,11.0,779.00,880.8
2020-04-30,10:05:00,DRY,3.20,11.20,10.5,779.00,898.1
2020-04-30,10:10:00,DRY,3.63,11.03,11.7,779.00,914.7
2020-04-30,10:15:00,DRY,3.55,11.25,10.5,779.00,931.9
2020-04-30,10:20:00,DRY,2.60,11.17,12.7,779.00,944.8
2020-04-30,10:25:00,DRY,1.90,11.10,13.5,779.00,960.2
2020-04-30,10:30:00,DRY,1.67,11.47,14.7,779.00,975.0
2020-04-30,10:35:00,DRY,2.40,11.60,10.5,779.00,989.2
2020-04-30,10:40:00,DRY,2.07,12.07,10.0,779.00,1004.6
2020-04-30,10:45:00,DRY,3.45,12.40,10.5,779.00,1016.1
2020-04-30,10:50:00,DRY,2.15,12.10,11.5,779.00,1026.4
2020-04-30,10:55:00,DRY,1.40,11.95,12.5,779.00,1042.0
2020-04-30,11:00:00,DRY,1.70,12.20,14.7,779.00,1053.3
2020-04-30,11:05:00,DRY,1.45,12.70,12.0,779.00,1066.8
2020-04-30,11:10:00,DRY,2.13,12.80,13.3,779.00,1076.9
2020-04-30,11:15:00,DRY,3.85,13.20,21.5,779.00,1086.8
2020-04-30,11:20:00,DRY,2.93,13.10,20.3,779.00,1095.9
2020-04-30,11:25:00,DRY,2.40,13.65,10.5,779.00,1107.3
2020-04-30,11:30:00,DRY,2.43,13.83,10.3,779.00,1115.6
2020-04-30,11:35:00,DRY,2.90,13.95,12.5,779.00,1125.4
2020-04-30,11:40:00,DRY,3.20,13.83,20.0,779.00,1132.1
2020-04-30,11:45:00,DRY,2.50,14.15,18.5,779.00,1139.7
2020-04-30,11:50:00,DRY,3.13,13.67,9.0,779.00,1147.7
2020-04-30,11:55:00,DRY,2.85,14.05,6.5,779.00,1154.2
2020-04-30,12:00:00,DRY,3.17,14.63,11.7,779.00,1159.9
2020-04-30,12:05:00,DRY,3.60,14.55,14.0,779.00,1164.8
2020-04-30,12:10:00,DRY,2.77,14.10,15.3,779.00,1170.9
2020-04-30,12:15:00,DRY,2.80,14.05,14.5,779.00,1174.4
2020-04-30,12:20:00,DRY,3.47,14.73,13.3,779.00,1181.1
2020-04-30,12:25:00,DRY,3.60,14.10,17.5,779.00,1182.1
2020-04-30,12:30:00,DRY,2.00,14.53,16.7,779.00,1186.0
2020-04-30,12:35:00,DRY,3.50,14.60,15.5,779.00,1189.8
2020-04-30,12:40:00,DRY,2.60,15.13,14.3,779.00,1192.3
2020-04-30,12:45:00,DRY,3.10,14.50,17.0,779.00,1192.4
2020-04-30,12:50:00,DRY,3.97,14.93,16.3,779.00,1195.5
2020-04-30,12:55:00,DRY,1.50,14.40,11.5,779.00,1197.2
2020-04-30,13:00:00,DRY,3.17,14.23,11.7,779.00,1196.8
2020-04-30,13:05:00,DRY,3.15,14.45,19.0,779.00,1196.8
2020-04-30,13:10:00,DRY,2.87,14.53,14.7,779.00,1198.5
2020-04-30,13:15:00,DRY,1.90,14.00,15.5,779.00,1196.0
2020-04-30,13:20:00,DRY,2.40,14.47,20.0,779.00,1197.0
2020-04-30,13:25:00,DRY,1.35,14.20,9.5,779.00,1196.7
2020-04-30,13:30:00,DRY,2.80,13.80,20.0,779.00,1196.5
2020-04-30,13:35:00,DRY,3.40,14.20,14.0,779.00,1191.9
2020-04-30,13:40:00,DRY,1.90,14.13,12.0,779.00,1187.8
2020-04-30,13:45:00,DRY,2.85,14.50,9.0,779.00,1184.3
2020-04-30,13:50:00,DRY,2.15,14.40,15.0,779.00,1182.8
2020-04-30,13:55:00,DRY,2.95,15.00,15.5,779.00,1179.2
2020-04-30,14:00:00,DRY,2.97,14.97,10.7,779.00,1175.3
2020-04-30,14:05:00,DRY,3.30,14.65,9.0,779.00,1169.0
2020-04-30,14:10:00,DRY,3.37,14.90,9.3,779.00,1163.1
2020-04-30,14:15:00,DRY,3.70,14.75,7.0,779.00,1157.5
2020-04-30,14:20:00,DRY,3.37,15.07,11.0,779.00,1150.0
2020-04-30,14:25:00,DRY,3.45,15.15,8.5,779.00,1143.1
2020-04-30,14:30:00,DRY,3.03,15.03,9.0,779.00,1135.7
2020-04-30,14:35:00,DRY,3.60,14.65,14.5,779.00,1128.8
2020-04-30,14:40:00,DRY,3.83,14.80,7.3,779.00,1119.0
2020-04-30,14:45:00,DRY,3.40,14.95,7.5,779.00,1110.4
2020-04-30,14:50:00,DRY,3.57,14.90,15.0,779.00,1101.4
2020-04-30,14:55:00,DRY,3.90,14.45,11.0,779.00,1090.6
2020-04-30,15:00:00,DRY,3.83,14.77,10.0,779.00,1079.6
2020-04-30,15:05:00,DRY,3.65,14.05,7.5,779.00,1067.5
2020-04-30,15:10:00,DRY,3.43,14.37,8.3,779.00,1056.9
2020-04-30,15:15:00,DRY,3.55,14.55,16.0,779.00,1043.8
2020-04-30,15:20:00,DRY,3.27,14.20,14.3,779.00,1030.8
2020-04-30,15:25:00,DRY,3.40,13.80,15.5,778.50,1019.7
2020-04-30,15:30:00,DRY,3.47,13.63,21.3,778.00,1006.3
2020-04-30,15:35:00,DRY,4.10,14.15,15.0,778.00,991.5
2020-04-30,15:40:00,DRY,3.47,14.27,20.3,778.33,977.1
2020-04-30,15:45:00,DRY,3.05,13.75,15.5,778.50,961.8
2020-04-30,15:50:00,DRY,3.27,13.83,16.7,778.33,946.4
2020-04-30,15:55:00,DRY,2.35,13.95,10.0,778.00,932.8
2020-04-30,16:00:00,DRY,3.07,13.93,19.3,778.00,916.3
2020-04-30,16:05:00,DRY,3.25,13.70,10.5,778.00,899.8
2020-04-30,16:10:00,DRY,3.43,14.00,14.0,778.00,883.6
2020-04-30,16:15:00,DRY,3.15,14.20,12.5,778.00,865.5
2020-04-30,16:20:00,DRY,2.63,13.97,10.3,778.00,849.2
2020-04-30,16:25:00,DRY,2.95,13.85,9.5,778.00,831.0
2020-04-30,16:30:00,DRY,3.47,14.37,8.7,778.00,813.8
2020-04-30,16:35:00,DRY,3.95,14.50,9.5,778.00,794.2
2020-04-30,16:40:00,DRY,3.80,14.23,10.0,778.00,776.3
2020-04-30,16:45:00,DRY,3.30,13.70,18.0,778.00,755.8
2020-04-30,16:50:00,DRY,2.50,13.57,14.3,778.00,737.3
2020-04-30,16:55:00,DRY,3.00,13.40,15.0,778.00,717.8
2020-04-30,17:00:00,DRY,3.17,13.33,16.0,778.00,697.4
2020-04-30,17:05:00,DRY,3.00,13.00,6.5,778.00,677.7
2020-04-30,17:10:00,DRY,2.87,13.03,10.0,778.00,655.9
2020-04-30,17:15:00,DRY,2.75,13.30,6.5,778.00,635.2
2020-04-30,17:20:00,DRY,1.93,13.10,4.7,778.00,613.6
2020-04-30,17:25:00,DRY,2.20,13.00,5.0,778.00,592.9
2020-04-30,17:30:00,DRY,2.80,13.07,4.7,778.00,569.7
2020-04-30,17:35:00,DRY,3.40,12.95,6.0,778.00,548.9
2020-04-30,17:40:00,DRY,3.40,13.03,8.7,778.00,525.7
2020-04-30,17:45:00,DRY,3.15,12.90,10.5,778.00,503.3
2020-04-30,17:50:00,DRY,3.20,12.77,14.0,778.00,481.1
2020-04-30,17:55:00,DRY,3.65,12.80,4.5,778.00,457.6
2020-04-30,18:00:00,DRY,3.13,12.77,5.3,778.00,436.0
2020-04-30,18:05:00,DRY,3.50,12.50,4.5,778.00,412.1
2020-04-30,18:10:00,DRY,3.30,12.47,5.3,778.00,388.8